Location: Unspecified
(0.0000°N, 0.0000°E)
Time: 21:37:35
(UTC+00:00)

USA 136 - Pass Details

Date: 12 June 2023
Orbit: 3538 x 36810 km, 63.6° (Epoch: 27 February)

Event Time Altitude Azimuth Distance (km) Brightness Sun altitude
Rises 07:27:17 0° 183° (S) 7,994 7.4 20.0°
Reaches altitude 10° 07:31:30 10° 174° (S) 7,422 7.4 21.0°
Maximum altitude 07:57:29 46° 95° (E) 9,398 9.2 26.8°
Drops below altitude 10° 11:55:00 10° 20° (NNE) 39,920 11.7 66.8°
Enters shadow 18:38:45 - 108° (ESE) 12,168 7.9 -8.9°
